Location: Unspecified
(0.0000°N, 0.0000°E)
Time: 07:36:53
(UTC+00:00)

Transit 4A - Pass Details

Date: 02 June 2022
Orbit: 864 x 980 km, 66.8° (Epoch: 24 June)

Event Time Altitude Azimuth Distance (km) Brightness Sun altitude
Rises 12:11:42 0° 347° (NNW) 3,532 11.3 67.5°
Reaches altitude 10° 12:14:16 10° 351° (N) 2,575 10.7 67.4°
Maximum altitude 12:20:08 61° 70° (ENE) 996 9.2 67.1°
Drops below altitude 10° 12:25:52 10° 150° (SSE) 2,520 10.1 66.8°
Sets 12:28:21 0° 153° (SSE) 3,451 10.6 66.6°
